OXP 1                   
1 22489U 93009A   19257.57304260  .00000243  00000-0  16846-4 0  9995
2 22489  24.9652 299.0602 0040973 353.8181   6.1819 14.44947682403736
SCD 1                   
1 22490U 93009B   19257.80446759  .00000230  00000-0  13210-4 0  9991
2 22490  24.9700 296.1578 0042976 347.8880 340.4846 14.44557851403959
PEGASUS R/B             
1 22491U 93009C   19257.47844702  .00000308  00000-0  25654-4 0  9996
2 22491  24.9782  59.6697 0047485 266.8024  92.7052 14.53280830410239